Location: Cran-Gévrier
(45.9039°N, 6.1012°E)
Time: 19:42:02
(UTC+00:00)

PSLV R/B - Visible Passes

Search period start: 01 October 2023 00:00
Search period end: 11 October 2023 00:00
Orbit: 484 x 543 km, 97.8° (Epoch: 30 September)

Date Brightness Start Highest point End Pass type
(mag) Time Alt. Az. Time Alt. Az. Time Alt. Az.
01 Oct 3.7 18:53:25 17° SSE 18:56:19 89° E 19:00:15 10° NNW visible
02 Oct 3.8 18:38:01 17° SSE 18:40:53 58° ENE 18:44:46 10° N visible
02 Oct 6.8 20:13:38 10° WSW 20:15:15 12° W 20:16:53 10° WNW visible
03 Oct 4.3 18:22:36 15° SE 18:25:29 39° ENE 18:29:10 10° N visible
03 Oct 6.4 19:57:34 13° SW 19:59:38 18° W 20:02:22 10° NW visible
04 Oct 4.8 18:07:10 12° ESE 18:10:06 27° ENE 18:13:26 10° N visible
04 Oct 5.8 19:42:08 18° SW 19:44:01 26° W 19:47:22 10° NW visible
05 Oct 5.3 17:51:56 10° ESE 17:54:44 19° ENE 17:57:32 10° NNE visible
05 Oct 5.1 19:26:41 25° SSW 19:28:26 39° W 19:32:08 10° NNW visible
06 Oct 5.6 17:37:24 10° E 17:39:22 14° ENE 17:41:21 10° NNE visible
06 Oct 4.2 19:11:13 31° SSW 19:12:52 60° W 19:16:46 10° NNW visible
07 Oct 3.7 18:55:43 35° SSE 18:57:18 89° E 19:01:16 10° NNW visible
08 Oct 3.8 18:40:13 33° SE 18:41:46 58° ENE 18:45:39 10° N visible
08 Oct 6.8 20:15:11 12° WSW 20:16:06 12° W 20:17:47 10° WNW visible
09 Oct 4.3 18:24:42 27° ESE 18:26:15 39° ENE 18:29:55 10° N visible
09 Oct 6.3 19:59:39 17° WSW 20:00:22 18° W 20:03:08 10° NW visible
10 Oct 4.8 18:09:09 20° ESE 18:10:44 27° ENE 18:14:04 10° N visible
10 Oct 5.7 19:44:07 26° WSW 19:44:38 26° W 19:48:00 10° NW visible
